Torna al catalogo

ORBCOMM FM 22

AttivoComunicazioniLEO
NORAD 25476·PAYLOAD·🇺🇸 United States

Lanciato Sep 23, 1998 da Cape Canaveral Space Force Station

Loading…

Prossimi Passaggi (prossime 24 ore)

TLE

AggiornatoSource: Space-Track

Epoca: Sep 14, 2026, 01:55 UTC

1 25476U 98053B   26257.08042993  .00000546  00000-0  21856-3 0  9996
2 25476  45.0066 268.8675 0004751 311.5177  48.5264 14.39594864462656

Traccia ORBCOMM FM 22 in tempo reale con AllMySat

Download on the App Store